Hourly Data Report for June 17, 2021

VICTORIA UNIVERSITY CS
BRITISH COLUMBIA
Current Station Operator: ECCC - MSC

48°27'25.200" N
123°18'16.600" W
60.10 m
1018598
71783
WYJ

Download Data

Hourly Data (June 2021)
Hourly Data Report for June 17, 2021
TIME
LST
Temp Definition
°C
Dew Point Definition
°C
Rel Hum Definition
%
Precip. Amount Definition
mm

Wind Dir Definition
10's deg

Wind Spd Definition
km/h
Visibility Definition
km
Stn Press Definition
kPa
Hmdx Definition


Wind Chill Definition


Weather Definition


00:00 10.7 9.1 90 0.0 26 3   101.54     LegendNANA
01:00 10.3 9.5 95 0.0   0   101.52     LegendNANA
02:00 9.3 8.6 96 0.0   0   101.52     LegendNANA
03:00 9.3 8.9 98 0.0   0   101.50     LegendNANA
04:00 8.7 8.7 100 0.0   0   101.50     LegendNANA
05:00 8.6 8.6 100 0.0 0 1   101.52     LegendNANA
06:00 13.6 10.2 80 0.0 3 1   101.53     LegendNANA
07:00 16.7 11.0 69 0.0 6 1   101.55     LegendNANA
08:00 15.8 10.2 70 0.0 9 3   101.55     LegendNANA
09:00 16.6 10.1 66 0.0 10 3   101.56     LegendNANA
10:00 17.2 10.1 63 0.0 10 3   101.55     LegendNANA
11:00 18.9 9.7 55 0.0 11 4   101.57     LegendNANA
12:00 19.7 8.8 49 0.0 15 6   101.53     LegendNANA
13:00 21.6 8.1 42 0.0 18 4   101.48     LegendNANA
14:00 21.8 7.8 41 0.0 18 10   101.44     LegendNANA
15:00 22.3 9.0 43 0.0 20 9   101.40     LegendNANA
16:00 21.6 8.8 44 0.0 21 10   101.36     LegendNANA
17:00 21.8 6.8 38 0.0 21 7   101.31     LegendNANA
18:00 21.2 2.6 29 0.0 23 11   101.24     LegendNANA
19:00 19.0 2.7 34 0.0 24 8   101.19     LegendNANA
20:00 17.4 3.9 41 0.0 24 8   101.18     LegendNANA
21:00 16.5 4.4 45 0.0 24 6   101.17     LegendNANA
22:00 15.4 5.4 52 0.0 26 6   101.18     LegendNANA
23:00 14.3 6.8 61 0.0 24 7   101.18     LegendNANA

Notes on Data Quality.

Legend

  • E = Estimated
  • M = Missing
  • NA = Not Available*
  • [empty] = Indicates an unobserved value
Date modified: